GW5769 Weather Reports


time (UTC)temp
C
wind
direction
speed
KPH
gust
KPH
rain 1hr
cm
rain 24hr
cm
rain mn
cm
humidity
%
barometer
mb
20260905220329 21 24 4.8 8.0 0.00 0.08 0.08 75 1013.7
20260905215828 21 25 4.8 8.0 0.00 0.08 0.08 75 1013.4
20260905215324 21 23 1.6 3.2 0.00 0.08 0.08 74 1013.1
20260905214820 21 14 16.1 20.9 0.00 0.08 0.08 73 1013.3
20260905214315 22 38 6.4 8.0 0.00 0.08 0.08 73 1013.3
20260905213810 21 53 4.8 8.0 0.00 0.08 0.08 73 1013.1
20260905213307 22 47 6.4 9.7 0.00 0.08 0.08 72 1013.2
20260905212807 22 53 9.7 16.1 0.00 0.08 0.08 73 1013.1
20260905212301 22 42 11.3 14.5 0.00 0.08 0.08 73 1012.8
20260905211800 22 39 4.8 12.9 0.00 0.08 0.08 72 1013.0
20260905211256 22 55 6.4 9.7 0.00 0.08 0.08 72 1013.1
20260905210753 22 26 6.4 8.0 0.00 0.08 0.08 72 1013.1
20260905210252 22 56 9.7 16.1 0.00 0.08 0.08 71 1012.8
20260905205751 22 35 6.4 8.0 0.00 0.08 0.08 71 1012.8
20260905205246 23 318 3.2 3.2 0.00 0.08 0.08 71 1012.6
20260905204745 22 65 3.2 3.2 0.00 0.08 0.08 71 1012.8
20260905204241 22 75 1.6 1.6 0.00 0.08 0.08 72 1012.7
20260905203740 23 36 9.7 11.3 0.00 0.08 0.08 70 1012.5
20260905203236 23 76 6.4 12.9 0.00 0.08 0.08 70 1012.6
20260905202732 23 41 8.0 12.9 0.00 0.08 0.08 70 1012.6
20260905202227 23 29 6.4 9.7 0.00 0.08 0.08 69 1012.5
20260905201722 22 36 9.7 14.5 0.00 0.08 0.08 70 1012.5
20260905201222 22 41 11.3 14.5 0.00 0.08 0.08 70 1012.6
20260905200718 22 25 9.7 14.5 0.00 0.08 0.08 70 1012.5
20260905200213 23 7 9.7 12.9 0.00 0.08 0.08 70 1012.4
20260905195711 23 60 6.4 8.0 0.00 0.08 0.08 71 1012.6
20260905195206 23 22 4.8 4.8 0.00 0.08 0.08 70 1012.4
20260905194702 23 97 12.9 20.9 0.00 0.08 0.08 70 1012.4
20260905194201 23 58 9.7 12.9 0.00 0.08 0.08 71 1012.5
20260905193655 22 356 6.4 9.7 0.00 0.08 0.08 72 1012.8
20260905193150 22 57 6.4 9.7 0.00 0.08 0.08 71 1012.7
20260905192646 22 7 9.7 12.9 0.00 0.08 0.08 71 1012.5
20260905192142 22 48 9.7 14.5 0.00 0.08 0.08 71 1012.6
20260905191642 22 52 6.4 11.3 0.00 0.08 0.08 71 1012.7
20260905191140 23 34 6.4 9.7 0.00 0.08 0.08 72 1012.8
20260905190639 22 33 6.4 11.3 0.00 0.08 0.08 73 1012.5
20260905190138 22 50 6.4 11.3 0.00 0.08 0.08 73 1012.6
20260905185637 22 46 8.0 9.7 0.00 0.08 0.08 72 1012.7
20260905185138 22 92 1.6 1.6 0.00 0.08 0.08 74 1012.7
20260905184631 22 13 14.5 17.7 0.00 0.08 0.08 73 1012.9
20260905184130 22 19 6.4 11.3 0.00 0.08 0.08 72 1012.7
20260905183625 22 24 1.6 1.6 0.00 0.08 0.08 74 1012.8
20260905183120 22 67 9.7 14.5 0.00 0.08 0.08 73 1012.7
20260905182619 22 49 6.4 8.0 0.00 0.08 0.08 73 1012.8
20260905182120 22 324 6.4 9.7 0.00 0.08 0.08 74 1012.7
20260905181619 22 83 4.8 8.0 0.00 0.08 0.08 74 1012.7
20260905181119 22 60 8.0 11.3 0.00 0.08 0.08 74 1012.8
20260905180614 22 33 6.4 9.7 0.00 0.08 0.08 74 1012.8
20260905180109 22 62 3.2 4.8 0.00 0.08 0.08 75 1012.7
20260905175608 22 51 3.2 4.8 0.00 0.08 0.08 74 1012.6
20260905175103 22 9 4.8 11.3 0.00 0.08 0.08 75 1012.8
20260905174559 22 30 4.8 9.7 0.00 0.08 0.08 77 1012.6
20260905174054 22 41 3.2 3.2 0.00 0.08 0.08 77 1012.7
20260905173551 22 71 6.4 8.0 0.00 0.08 0.08 77 1012.9
20260905173046 22 23 6.4 9.7 0.00 0.08 0.08 76 1012.5
20260905172545 22 0 9.7 11.3 0.00 0.08 0.08 76 1012.6
20260905172040 22 351 8.0 11.3 0.00 0.08 0.08 76 1012.8
20260905171537 22 48 3.2 4.8 0.00 0.08 0.08 78 1012.7
20260905171032 21 58 4.8 4.8 0.00 0.08 0.08 79 1012.8
20260905170529 22 38 1.6 3.2 0.00 0.08 0.08 79 1012.9
20260905170023 22 3 6.4 9.7 0.00 0.08 0.08 79 1012.9
20260905165519 22 349 11.3 14.5 0.00 0.08 0.08 79 1012.8
20260905165014 21 35 3.2 4.8 0.00 0.08 0.08 81 1012.8
20260905164513 21 52 6.4 9.7 0.00 0.08 0.08 82 1012.8
20260905164008 22 87 1.6 3.2 0.00 0.08 0.08 85 1012.9
20260905163504 21 36 1.6 1.6 0.00 0.08 0.08 86 1012.7
20260905163000 21 22 1.6 1.6 0.00 0.08 0.08 87 1013.1
20260905162455 21 352 4.8 8.0 0.00 0.08 0.08 86 1013.1
20260905161950 21 58 1.6 3.2 0.00 0.08 0.08 88 1012.9
20260905161449 20 49 4.8 4.8 0.00 0.08 0.08 89 1012.9
20260905160948 20 359 6.4 8.0 0.00 0.08 0.08 91 1013.1
20260905160442 20 327 6.4 8.0 0.00 0.08 0.08 92 1013.1
20260905155941 20 1 3.2 3.2 0.00 0.08 0.08 94 1013.3
20260905155436 19 24 0.0 1.6 0.30 0.08 0.08 93 1013.2
20260905154935 19 58 1.6 1.6 0.48 0.08 0.08 91 1013.2
20260905154430 20 71 4.8 4.8 0.30 0.05 0.05 88 1013.3
20260905153926 20 50 3.2 3.2 0.00 0.00 0.00 85 1013.2
20260905153422 20 82 3.2 4.8 0.00 0.00 0.00 85 1013.2
20260905152921 20 34 0.0 0.0 0.00 0.00 0.00 86 1013.3
20260905152420 20 55 4.8 9.7 0.00 0.00 0.00 86 1013.4
20260905151916 20 81 4.8 8.0 0.00 0.00 0.00 87 1013.3
20260905151412 20 71 1.6 1.6 0.00 0.00 0.00 88 1013.5
20260905150912 20 91 0.0 3.2 0.00 0.00 0.00 87 1013.3
20260905150412 20 56 1.6 1.6 0.00 0.00 0.00 87 1013.4
20260905145909 20 15 4.8 8.0 0.00 0.00 0.00 87 1013.6
20260905145410 20 44 8.0 9.7 0.00 0.00 0.00 86 1013.4
20260905144909 20 39 3.2 4.8 0.00 0.00 0.00 90 1013.3
20260905144405 19 55 1.6 3.2 0.00 0.00 0.00 90 1013.2
20260905143903 19 43 4.8 4.8 0.00 0.00 0.00 90 1013.3
20260905143358 19 27 3.2 4.8 0.00 0.00 0.00 90 1013.2
20260905142857 19 37 4.8 8.0 0.00 0.00 0.00 90 1013.6
20260905142356 19 100 1.6 1.6 0.00 0.00 0.00 91 1013.4
20260905141852 19 53 3.2 4.8 0.00 0.00 0.00 91 1013.6
20260905141347 18 95 4.8 8.0 0.00 0.00 0.00 91 1013.4
20260905140843 18 32 0.0 1.6 0.00 0.00 0.00 92 1013.6
20260905140343 18 38 3.2 3.2 0.00 0.00 0.00 92 1013.5
20260905135842 19 57 1.6 1.6 0.00 0.00 0.00 92 1013.6
20260905135338 18 83 0.0 0.0 0.00 0.00 0.00 92 1013.4
20260905134833 19 90 1.6 1.6 0.00 0.00 0.00 93 1013.6
20260905134332 18 39 1.6 1.6 0.00 0.00 0.00 93 1013.4
20260905133826 18 93 1.6 3.2 0.00 0.00 0.00 95 1013.7
20260905133321 18 72 0.0 0.0 0.00 0.00 0.00 97 1013.6
20260905132820 17 79 3.2 3.2 0.00 0.00 0.00 98 1013.7
20260905132317 17 317 0.0 1.6 0.00 0.00 0.00 99 1013.5
20260905131810 17 295 0.0 0.0 0.00 0.00 0.00 99 1013.4
20260905131306 18 13 0.0 1.6 0.00 0.00 0.00 99 1013.3
20260905130802 17 87 0.0 1.6 0.00 0.00 0.00 99 1013.3
20260905130300 17 83 0.0 1.6 0.00 0.00 0.00 99 1013.3
20260905125756 17 77 0.0 0.0 0.00 0.00 0.00 99 1013.3
20260905125256 17 79 0.0 1.6 0.00 0.00 0.00 99 1013.3
20260905124752 16 52 0.0 1.6 0.00 0.00 0.00 99 1013.1
20260905124248 16 51 0.0 0.0 0.00 0.00 0.00 99 1013.2
20260905123743 16 51 0.0 0.0 0.00 0.00 0.00 99 1013.1
20260905123241 16 51 0.0 0.0 0.00 0.00 0.00 99 1013.3
20260905122741 16 51 0.0 0.0 0.00 0.00 0.00 99 1013.2
20260905122240 16 60 0.0 1.6 0.00 0.00 0.00 99 1012.9
20260905121735 16 86 0.0 0.0 0.00 0.00 0.00 99 1013.2
20260905121232 16 93 0.0 1.6 0.00 0.00 0.00 99 1013.3
20260905120730 16 93 0.0 1.6 0.00 0.00 0.00 99 1013.1
20260905120230 16 65 1.6 1.6 0.00 0.00 0.00 99 1013.0
20260905115726 15 57 0.0 1.6 0.00 0.00 0.00 99 1013.0
20260905115225 15 62 0.0 0.0 0.00 0.00 0.00 99 1013.0
20260905114720 15 58 0.0 0.0 0.00 0.00 0.00 99 1012.9
20260905114219 15 44 1.6 1.6 0.00 0.00 0.00 99 1012.7
20260905113718 15 22 1.6 1.6 0.00 0.00 0.00 99 1012.7
20260905113214 15 21 0.0 0.0 0.00 0.00 0.00 99 1012.6
20260905112714 14 21 0.0 0.0 0.00 0.00 0.00 99 1012.3
20260905112209 14 20 0.0 0.0 0.00 0.00 0.00 99 1012.6
20260905111709 13 20 0.0 0.0 0.00 0.00 0.00 99 1012.5
20260905111209 13 21 0.0 0.0 0.00 0.00 0.00 99 1012.5
20260905110708 13 20 0.0 0.0 0.00 0.00 0.00 99 1012.5
20260905110203 13 13 0.0 0.0 0.00 0.00 0.00 99 1012.6
20260905105659 13 21 0.0 0.0 0.00 0.00 0.00 99 1012.4
20260905105157 13 21 0.0 0.0 0.00 0.00 0.00 99 1012.5
20260905104652 13 21 0.0 0.0 0.00 0.00 0.00 99 1012.5
20260905104148 13 11 0.0 0.0 0.00 0.00 0.00 99 1012.4
20260905103643 13 338 1.6 1.6 0.00 0.00 0.00 99 1012.3
20260905103139 13 334 1.6 3.2 0.00 0.00 0.00 99 1012.1
20260905102634 13 3 0.0 0.0 0.00 0.00 0.00 99 1011.9
20260905102131 13 16 1.6 1.6 0.00 0.00 0.00 99 1011.9
20260905101629 12 32 1.6 1.6 0.00 0.00 0.00 99 1011.9
20260905101127 12 34 0.0 0.0 0.00 0.00 0.00 99 1012.1
20260905100625 12 34 0.0 0.0 0.00 0.00 0.00 99 1011.9
20260905100120 12 33 0.0 0.0 0.00 0.00 0.00 99 1012.0
20260905095618 12 34 0.0 0.0 0.00 0.00 0.00 99 1012.1
20260905095114 12 34 0.0 0.0 0.00 0.00 0.00 99 1012.1
20260905094609 13 34 0.0 0.0 0.00 0.00 0.00 99 1012.0
20260905094108 13 34 0.0 0.0 0.00 0.00 0.00 99 1012.0
20260905093608 13 34 0.0 0.0 0.00 0.00 0.00 99 1011.9
20260905093105 13 34 0.0 0.0 0.00 0.00 0.00 99 1012.0
20260905092604 13 359 0.0 0.0 0.00 0.00 0.00 99 1011.8
20260905092101 13 10 1.6 1.6 0.00 0.00 0.00 99 1011.9
20260905091559 13 333 1.6 3.2 0.00 0.00 0.00 99 1011.9
20260905091054 13 72 1.6 1.6 0.00 0.00 0.00 99 1011.8
20260905090554 13 22 0.0 0.0 0.00 0.00 0.00 99 1011.7
20260905090049 13 358 1.6 1.6 0.00 0.00 0.00 99 1011.7
20260905085548 13 9 1.6 1.6 0.00 0.00 0.00 99 1011.6
20260905085044 13 21 0.0 0.0 0.00 0.00 0.00 99 1011.6
20260905084543 13 0 0.0 0.0 0.00 0.00 0.00 99 1011.7
20260905084038 13 359 0.0 0.0 0.00 0.00 0.00 99 1011.6
20260905083533 13 358 0.0 0.0 0.00 0.00 0.00 99 1011.4
20260905083030 13 358 0.0 0.0 0.00 0.00 0.00 99 1011.4
20260905082525 13 358 0.0 0.0 0.00 0.00 0.00 99 1011.5
20260905082021 13 329 0.0 0.0 0.00 0.00 0.00 99 1011.5
20260905081521 13 302 0.0 0.0 0.00 0.00 0.00 99 1011.4
20260905081021 13 301 0.0 0.0 0.00 0.00 0.00 99 1011.5
20260905080520 14 299 0.0 0.0 0.00 0.00 0.00 99 1011.5
20260905080016 13 306 0.0 0.0 0.00 0.00 0.00 99 1011.6
20260905075509 14 320 0.0 0.0 0.00 0.00 0.00 99 1011.5
20260905075008 14 314 1.6 1.6 0.00 0.00 0.00 99 1011.7
20260905074503 13 338 0.0 0.0 0.00 0.00 0.00 99 1011.6
20260905073959 14 5 0.0 0.0 0.00 0.00 0.00 99 1011.6
20260905073454 13 4 1.6 1.6 0.00 0.00 0.00 99 1011.5
20260905072949 14 41 0.0 0.0 0.00 0.00 0.00 99 1011.7
20260905072444 13 42 0.0 0.0 0.00 0.00 0.00 99 1011.9
20260905071939 15 260 0.0 0.0 0.00 0.00 0.00 99 1011.6
20260905071437 14 285 0.0 1.6 0.00 0.00 0.00 99 1011.8
20260905070935 14 272 0.0 0.0 0.00 0.00 0.00 99 1011.8
20260905070432 15 287 1.6 1.6 0.00 0.00 0.00 99 1011.9
20260905065931 15 262 3.2 3.2 0.00 0.00 0.00 99 1011.9
20260905065430 15 311 1.6 1.6 0.00 0.00 0.00 99 1011.9
20260905064925 14 345 0.0 1.6 0.00 0.00 0.00 99 1011.9
20260905064420 14 42 0.0 0.0 0.00 0.00 0.00 99 1012.0
20260905063920 15 18 1.6 1.6 0.00 0.00 0.00 99 1011.9
20260905063415 15 299 1.6 1.6 0.00 0.00 0.00 99 1012.1
20260905062912 15 336 1.6 1.6 0.00 0.00 0.00 99 1012.0
20260905062406 15 33 0.0 0.0 0.00 0.00 0.00 99 1012.0
20260905061901 15 287 0.0 0.0 0.00 0.00 0.00 99 1012.1
20260905061400 15 323 1.6 1.6 0.00 0.00 0.00 99 1012.0
20260905060854 15 333 1.6 3.2 0.00 0.00 0.00 99 1012.0
20260905060352 15 355 0.0 0.0 0.00 0.00 0.00 99 1012.0
20260905055850 15 355 0.0 0.0 0.00 0.00 0.00 99 1012.1
20260905055346 15 302 0.0 0.0 0.00 0.00 0.00 99 1011.9
20260905054845 15 302 0.0 0.0 0.00 0.00 0.00 99 1012.0
20260905054341 15 301 0.0 0.0 0.00 0.00 0.00 99 1012.1
20260905053841 15 303 0.0 0.0 0.00 0.00 0.00 99 1012.1
20260905053341 15 322 0.0 1.6 0.00 0.00 0.00 99 1011.9
20260905052837 16 322 0.0 0.0 0.00 0.00 0.00 99 1011.9
20260905052336 15 204 0.0 0.0 0.00 0.00 0.00 99 1011.9
20260905051836 15 243 1.6 1.6 0.00 0.00 0.00 99 1012.1
20260905051332 16 308 1.6 1.6 0.00 0.00 0.00 99 1011.9
20260905050829 16 187 1.6 1.6 0.00 0.00 0.00 99 1012.0
20260905050325 16 185 0.0 0.0 0.00 0.00 0.00 99 1011.9
20260905045820 16 186 0.0 0.0 0.00 0.00 0.00 99 1012.1
20260905045315 16 261 3.2 3.2 0.00 0.00 0.00 99 1012.1
20260905044810 16 168 1.6 1.6 0.00 0.00 0.00 99 1012.3
20260905044306 16 37 0.0 0.0 0.00 0.00 0.00 99 1012.1
20260905043804 16 37 0.0 1.6 0.00 0.00 0.00 99 1012.1
20260905043259 16 262 1.6 3.2 0.00 0.00 0.00 99 1012.0
20260905042759 17 290 1.6 1.6 0.00 0.00 0.00 99 1012.2
20260905042259 17 303 1.6 1.6 0.00 0.00 0.00 99 1012.1
20260905041754 16 338 1.6 1.6 0.00 0.00 0.00 99 1012.3
20260905041249 17 119 0.0 0.0 0.00 0.00 0.00 99 1012.2
20260905040744 16 274 0.0 0.0 0.00 0.00 0.00 99 1012.3
20260905040243 16 274 0.0 1.6 0.00 0.00 0.00 99 1012.5
20260905035738 16 274 0.0 0.0 0.00 0.00 0.00 99 1012.2
20260905035234 17 258 1.6 1.6 0.00 0.00 0.00 99 1012.4
20260905034731 17 260 1.6 1.6 0.00 0.00 0.00 99 1012.1
20260905034230 17 233 1.6 1.6 0.00 0.00 0.00 99 1012.3
20260905033729 17 233 0.0 0.0 0.00 0.00 0.00 98 1012.3
20260905033225 17 233 0.0 0.0 0.00 0.00 0.00 98 1012.4
20260905032724 17 232 0.0 0.0 0.00 0.00 0.00 98 1012.2
20260905032220 17 240 0.0 0.0 0.00 0.00 0.00 98 1012.3
20260905031715 17 250 3.2 3.2 0.00 0.00 0.00 97 1012.3
20260905031210 17 254 3.2 3.2 0.00 0.00 0.00 97 1012.2
20260905030705 17 267 1.6 3.2 0.00 0.00 0.00 97 1012.3
20260905030200 17 268 3.2 3.2 0.00 0.00 0.00 97 1012.2
20260905025655 17 288 1.6 1.6 0.00 0.00 0.00 96 1012.2
20260905025151 17 289 3.2 3.2 0.00 0.00 0.00 95 1012.0
20260905024647 18 274 0.0 0.0 0.00 0.00 0.00 95 1012.4
20260905024142 18 290 3.2 3.2 0.00 0.00 0.00 95 1012.3
20260905023637 18 303 0.0 0.0 0.00 0.00 0.00 94 1012.0
20260905023137 18 305 1.6 1.6 0.00 0.00 0.00 94 1012.2
20260905022636 18 287 1.6 1.6 0.00 0.00 0.00 94 1012.2
20260905022132 18 151 0.0 0.0 0.00 0.00 0.00 94 1012.2
20260905021631 18 151 0.0 0.0 0.00 0.00 0.00 93 1012.3
20260905021127 18 151 0.0 0.0 0.00 0.00 0.00 92 1012.3
20260905020627 18 151 0.0 0.0 0.00 0.00 0.00 92 1012.4
20260905020122 18 151 0.0 0.0 0.00 0.00 0.00 91 1012.2
20260905015621 19 151 0.0 0.0 0.00 0.00 0.00 91 1012.3
20260905015115 19 20 0.0 1.6 0.00 0.00 0.00 89 1012.2
20260905014615 20 20 0.0 1.6 0.00 0.00 0.00 89 1012.3
20260905014111 20 22 0.0 0.0 0.00 0.00 0.00 88 1012.1
20260905013607 20 60 0.0 0.0 0.00 0.00 0.00 88 1012.3
20260905013103 20 83 1.6 1.6 0.00 0.00 0.00 88 1012.4
20260905012602 19 8 0.0 0.0 0.00 0.00 0.00 90 1012.3
20260905012059 19 32 1.6 1.6 0.00 0.00 0.00 92 1012.3
20260905011555 19 25 0.0 1.6 0.00 0.00 0.00 93 1012.4
20260905011050 19 354 0.0 0.0 0.00 0.00 0.00 93 1012.4
20260905010550 19 41 0.0 0.0 0.00 0.00 0.00 92 1012.5
20260905010047 20 27 0.0 1.6 0.00 0.00 0.00 91 1012.4
20260905005542 20 296 3.2 3.2 0.00 0.00 0.00 92 1012.2
20260905005037 20 299 1.6 1.6 0.00 0.00 0.00 91 1012.2
20260905004532 20 299 1.6 1.6 0.00 0.00 0.00 90 1012.1
20260905004027 20 298 0.0 0.0 0.00 0.00 0.00 89 1012.2
20260905003523 20 297 0.0 0.0 0.00 0.00 0.00 88 1011.9
20260905003018 20 297 0.0 0.0 0.00 0.00 0.00 88 1012.1
20260905002513 20 297 0.0 0.0 0.00 0.00 0.00 87 1012.0
20260905002008 21 297 0.0 0.0 0.00 0.00 0.00 85 1012.1
20260905001503 21 297 0.0 0.0 0.00 0.00 0.00 81 1011.9
20260905000957 21 309 1.6 1.6 0.00 0.00 0.00 77 1011.8
20260905000454 21 303 1.6 3.2 0.00 0.00 0.00 78 1011.7
20260904235948 21 330 3.2 3.2 0.00 0.00 0.00 81 1011.9
20260904235444 20 289 1.6 1.6 0.00 0.00 0.00 84 1011.7
20260904234943 20 305 1.6 1.6 0.00 0.00 0.00 85 1011.8
20260904234443 21 328 1.6 1.6 0.00 0.00 0.00 84 1011.5
20260904233939 21 270 0.0 1.6 0.00 0.00 0.00 83 1011.7
20260904233434 21 269 1.6 1.6 0.00 0.00 0.00 83 1011.5
20260904232931 21 307 4.8 4.8 0.00 0.00 0.00 83 1011.4
20260904232427 21 20 0.0 0.0 0.00 0.00 0.00 81 1011.5
20260904231923 22 20 0.0 0.0 0.00 0.00 0.00 80 1011.5
20260904231424 21 19 0.0 0.0 0.00 0.00 0.00 80 1011.7
20260904230919 22 19 1.6 1.6 0.00 0.00 0.00 79 1011.4
20260904230417 22 21 0.0 0.0 0.00 0.00 0.00 78 1011.4
20260904225913 22 21 0.0 0.0 0.00 0.00 0.00 77 1011.4
20260904225411 22 21 0.0 0.0 0.00 0.00 0.00 76 1011.5
20260904224911 22 22 0.0 0.0 0.00 0.00 0.00 76 1011.3
20260904224407 22 1 1.6 3.2 0.00 0.00 0.00 75 1011.4
20260904223906 23 354 1.6 3.2 0.00 0.00 0.00 75 1011.3
20260904223406 23 325 1.6 3.2 0.00 0.00 0.00 74 1011.4
20260904222902 23 329 3.2 3.2 0.00 0.00 0.00 73 1011.2
20260904222402 23 343 3.2 3.2 0.00 0.00 0.00 72 1011.2
20260904221902 23 1 0.0 1.6 0.00 0.00 0.00 72 1011.1
20260904221357 23 30 0.0 0.0 0.00 0.00 0.00 71 1011.3
20260904220852 23 43 1.6 1.6 0.00 0.00 0.00 70 1011.0